CW0018 Weather Reports


time (UTC)temp
C
wind
direction
speed
KPH
gust
KPH
rain 1hr
cm
rain 24hr
cm
rain mn
cm
humidity
%
barometer
mb
20260506125220 23 103 0.0 1.6 0.00 0.00 0.00 95 1009.2
20260506124719 23 0 0.0 1.6 0.00 0.00 0.00 95 1009.2
20260506124220 23 106 0.0 1.6 0.00 0.00 0.00 95 1009.2
20260506123720 23 0 1.6 3.2 0.00 0.00 0.00 95 1009.2
20260506123220 23 79 0.0 3.2 0.00 0.00 0.00 95 1009.2
20260506122720 23 116 0.0 1.6 0.00 0.00 0.00 95 1009.1
20260506122205 23 112 0.0 1.6 0.00 0.00 0.00 95 1009.1
20260506121706 23 80 0.0 1.6 0.00 0.00 0.00 95 1009.0
20260506120650 23 118 1.6 3.2 0.00 0.00 0.00 95 1009.1
20260506120150 23 102 1.6 3.2 0.00 0.00 0.00 95 1009.1
20260506115650 23 81 1.6 3.2 0.00 0.00 0.00 95 1009.0
20260506115151 23 0 1.6 3.2 0.00 0.00 0.00 95 1008.9
20260506114635 23 166 1.6 3.2 0.00 0.00 0.00 94 1008.9
20260506114135 23 64 1.6 3.2 0.00 0.00 0.00 94 1008.9
20260506113636 23 98 1.6 3.2 0.00 0.00 0.00 94 1008.9
20260506112635 23 132 1.6 4.8 0.00 0.00 0.00 94 1008.8
20260506112135 23 132 1.6 4.8 0.00 0.00 0.00 94 1008.7
20260506111636 23 94 1.6 4.8 0.00 0.00 0.00 94 1008.5
20260506111136 23 115 1.6 4.8 0.00 0.00 0.00 94 1008.5
20260506110634 23 0 1.6 4.8 0.00 0.00 0.00 94 1008.5
20260506110135 23 272 3.2 4.8 0.00 0.00 0.00 94 1008.5
20260506104635 23 85 1.6 4.8 0.00 0.00 0.00 94 1008.4
20260506104134 23 73 1.6 3.2 0.00 0.00 0.00 94 1008.5
20260506103634 23 196 1.6 6.4 0.00 0.00 0.00 94 1008.5
20260506103135 23 123 1.6 6.4 0.00 0.00 0.00 94 1008.4
20260506102635 23 62 3.2 4.8 0.00 0.00 0.00 94 1008.4
20260506102134 23 137 1.6 4.8 0.00 0.00 0.00 94 1008.3
20260506101635 23 89 1.6 4.8 0.00 0.00 0.00 94 1008.2
20260506101126 23 327 3.2 8.0 0.00 0.00 0.00 94 1008.3
20260506100122 23 59 1.6 6.4 0.00 0.00 0.00 93 1008.1
20260506095624 23 90 3.2 12.9 0.00 0.00 0.00 93 1008.0
20260506095123 23 182 3.2 12.9 0.00 0.00 0.00 93 1007.9
20260506094624 23 34 3.2 6.4 0.00 0.00 0.00 93 1007.9
20260506094123 23 170 1.6 8.0 0.00 0.00 0.00 93 1007.8
20260506093623 23 81 1.6 8.0 0.00 0.00 0.00 93 1007.8
20260506092622 23 0 3.2 9.7 0.00 0.00 0.00 94 1007.8
20260506092124 23 169 3.2 6.4 0.00 0.00 0.00 93 1007.7
20260506091623 23 94 3.2 8.0 0.00 0.00 0.00 93 1007.8
20260506091123 23 155 3.2 8.0 0.00 0.00 0.00 93 1007.8
20260506090624 23 133 3.2 9.7 0.00 0.00 0.00 93 1007.8
20260506085623 23 1 3.2 11.3 0.00 0.00 0.00 93 1007.8
20260506085123 23 109 3.2 9.7 0.00 0.00 0.00 93 1007.7
20260506084624 23 177 3.2 6.4 0.00 0.00 0.00 93 1007.7
20260506083621 23 177 3.2 11.3 0.00 0.00 0.00 93 1007.8
20260506082120 23 192 3.2 9.7 0.00 0.00 0.00 93 1007.8
20260506081621 23 201 3.2 9.7 0.00 0.00 0.00 93 1007.8
20260506081120 23 188 3.2 8.0 0.00 0.00 0.00 93 1007.7
20260506080620 23 175 3.2 8.0 0.00 0.00 0.00 94 1007.7
20260506080121 23 179 3.2 9.7 0.00 0.00 0.00 94 1007.9
20260506073121 23 182 3.2 9.7 0.00 0.00 0.00 94 1008.1
20260506072622 23 95 4.8 12.9 0.00 0.00 0.00 94 1008.0
20260506072121 23 202 3.2 12.9 0.00 0.00 0.00 94 1008.1
20260506071618 23 98 3.2 9.7 0.00 0.00 0.00 94 1008.2
20260506071119 23 161 3.2 11.3 0.00 0.00 0.00 94 1008.2
20260506070618 23 86 3.2 11.3 0.00 0.00 0.00 94 1008.3
20260506070118 23 128 3.2 8.0 0.00 0.00 0.00 94 1008.2
20260506062119 23 237 3.2 11.3 0.00 0.00 0.00 94 1008.5
20260506060618 23 135 3.2 8.0 0.00 0.00 0.00 93 1008.5
20260506060116 23 130 3.2 8.0 0.00 0.00 0.00 93 1008.4
20260506051111 23 175 3.2 9.7 0.00 0.00 0.00 92 1008.3
20260506050611 23 81 4.8 9.7 0.00 0.00 0.00 92 1008.3
20260506045111 23 328 4.8 9.7 0.00 0.00 0.00 92 1008.3
20260506044611 23 139 4.8 11.3 0.00 0.00 0.00 92 1008.4
20260506044111 23 155 4.8 11.3 0.00 0.00 0.00 92 1008.4
20260506042608 23 193 4.8 11.3 0.00 0.00 0.00 91 1008.1
20260506042109 23 128 4.8 12.9 0.00 0.00 0.00 91 1008.2
20260506041608 23 208 4.8 12.9 0.00 0.00 0.00 91 1008.1
20260506041108 23 148 4.8 11.3 0.00 0.00 0.00 90 1008.2
20260506040608 24 110 4.8 11.3 0.00 0.00 0.00 90 1008.3
20260506035605 24 119 4.8 11.3 0.00 0.00 0.00 90 1008.0
20260506035106 24 157 4.8 9.7 0.00 0.00 0.00 90 1007.9
20260506034606 24 83 4.8 11.3 0.00 0.00 0.00 90 1007.8
20260506033106 24 230 4.8 12.9 0.00 0.00 0.00 89 1007.8
20260506032606 24 184 4.8 11.3 0.00 0.00 0.00 89 1007.7
20260506032106 24 128 4.8 11.3 0.00 0.00 0.00 89 1007.6
20260506031607 24 143 4.8 11.3 0.00 0.00 0.00 88 1007.5
20260506031106 24 134 4.8 11.3 0.00 0.00 0.00 88 1007.4
20260506030103 24 132 4.8 11.3 0.00 0.00 0.00 88 1007.2
20260506025603 24 165 4.8 11.3 0.00 0.00 0.00 88 1007.1
20260506025104 25 122 4.8 11.3 0.00 0.00 0.00 87 1007.2
20260506024600 25 119 4.8 11.3 0.00 0.00 0.00 87 1007.2
20260506024100 25 157 4.8 11.3 0.00 0.00 0.00 87 1007.1
20260506023601 25 154 4.8 11.3 0.00 0.00 0.00 87 1007.1
20260506022101 25 79 4.8 11.3 0.00 0.00 0.00 86 1006.9
20260506021600 25 175 4.8 12.9 0.00 0.00 0.00 86 1006.9
20260506021101 25 191 4.8 12.9 0.00 0.00 0.00 86 1007.0
20260506020601 25 126 3.2 8.0 0.00 0.00 0.00 86 1006.8
20260506020100 25 112 3.2 9.7 0.00 0.00 0.00 85 1006.7
20260506015601 25 176 4.8 9.7 0.00 0.00 0.00 85 1006.7
20260506014101 26 196 4.8 12.9 0.00 0.00 0.00 83 1006.6
20260506013601 26 190 4.8 9.7 0.00 0.00 0.00 83 1006.4
20260506013059 26 138 4.8 9.7 0.00 0.00 0.00 82 1006.5
20260506012558 26 112 3.2 9.7 0.00 0.00 0.00 83 1006.4
20260506012058 26 132 3.2 9.7 0.00 0.00 0.00 83 1006.5
20260506011556 26 62 3.2 9.7 0.00 0.00 0.00 83 1006.4
20260506010552 26 114 3.2 9.7 0.00 0.00 0.00 83 1006.1
20260506010053 26 120 3.2 8.0 0.00 0.00 0.00 83 1006.0
20260506005553 26 139 3.2 6.4 0.00 0.00 0.00 82 1006.0
20260506005052 26 146 3.2 6.4 0.00 0.00 0.00 82 1005.9
20260506004553 26 128 1.6 6.4 0.00 0.00 0.00 82 1005.8
20260506004053 26 96 3.2 9.7 0.00 0.00 0.00 82 1005.8
20260506003553 27 102 3.2 9.7 0.00 0.00 0.00 81 1005.7
20260506003053 27 92 3.2 6.4 0.00 0.00 0.00 81 1005.6
20260506002553 27 122 3.2 6.4 0.00 0.00 0.00 80 1005.6
20260506001052 27 127 3.2 12.9 0.00 0.00 0.00 79 1005.4
20260506000552 27 181 4.8 12.9 0.00 0.00 0.00 79 1005.4
20260506000051 27 128 4.8 12.9 0.00 0.00 0.00 78 1005.3
20260505235550 27 98 4.8 12.9 0.00 0.00 0.00 78 1005.2
20260505235050 27 99 4.8 9.7 0.00 0.00 0.00 77 1005.2
20260505234548 28 81 3.2 9.7 0.00 0.00 0.00 77 1005.2
20260505233047 28 129 4.8 9.7 0.00 0.00 0.00 76 1005.2
20260505232548 28 117 4.8 9.7 0.00 0.00 0.00 75 1005.2
20260505232047 28 110 4.8 12.9 0.00 0.00 0.00 75 1005.2
20260505231548 28 111 3.2 12.9 0.00 0.00 0.00 74 1005.1
20260505231047 28 167 3.2 11.3 0.00 0.00 0.00 74 1005.1
20260505230547 28 96 3.2 8.0 0.00 0.00 0.00 73 1005.0
20260505230048 28 196 4.8 9.7 0.00 0.00 0.00 73 1005.0
20260505225547 28 87 4.8 9.7 0.00 0.00 0.00 73 1005.1
20260505225047 28 159 4.8 11.3 0.00 0.00 0.00 72 1004.9
20260505224548 28 140 4.8 11.3 0.00 0.00 0.00 71 1004.9
20260505224047 28 113 3.2 11.3 0.00 0.00 0.00 72 1004.9
20260505223548 29 43 3.2 11.3 0.00 0.00 0.00 71 1005.0
20260505223045 29 330 3.2 8.0 0.00 0.00 0.00 71 1005.0
20260505222543 29 87 3.2 8.0 0.00 0.00 0.00 71 1005.0
20260505221544 29 264 3.2 9.7 0.00 0.00 0.00 70 1004.9
20260505221044 28 236 3.2 11.3 0.00 0.00 0.00 69 1005.1
20260505220543 28 172 4.8 11.3 0.00 0.00 0.00 69 1005.1
20260505220044 28 200 3.2 11.3 0.00 0.00 0.00 70 1005.3
20260505215543 28 134 3.2 14.5 0.00 0.00 0.00 71 1005.2
20260505215043 28 136 3.2 14.5 0.00 0.00 0.00 70 1005.4
20260505214544 28 161 3.2 9.7 0.00 0.00 0.00 71 1005.3
20260505214044 28 133 3.2 11.3 0.00 0.00 0.00 71 1005.3
20260505213043 28 169 4.8 16.1 0.00 0.00 0.00 70 1005.4
20260505212544 29 193 4.8 11.3 0.00 0.00 0.00 70 1005.4
20260505212044 29 211 4.8 14.5 0.00 0.00 0.00 71 1005.4
20260505211543 29 200 6.4 14.5 0.00 0.00 0.00 69 1005.5
20260505211044 29 302 4.8 12.9 0.00 0.00 0.00 70 1005.4
20260505210543 29 222 4.8 9.7 0.00 0.00 0.00 69 1005.5
20260505210041 28 55 4.8 12.9 0.00 0.00 0.00 71 1005.7
20260505205537 28 156 4.8 12.9 0.00 0.00 0.00 72 1005.9
20260505204534 28 4 3.2 12.9 0.00 0.00 0.00 73 1006.0
20260505204034 28 185 3.2 11.3 0.00 0.00 0.00 73 1006.1
20260505203534 28 267 4.8 12.9 0.00 0.00 0.00 74 1006.2
20260505203035 28 132 4.8 12.9 0.00 0.00 0.00 74 1006.3
20260505202535 28 248 4.8 12.9 0.00 0.00 0.00 74 1006.4
20260505202034 28 124 4.8 12.9 0.00 0.00 0.00 75 1006.4
20260505201534 28 85 4.8 12.9 0.00 0.00 0.00 74 1006.6
20260505201035 28 153 4.8 14.5 0.00 0.00 0.00 73 1006.4
20260505200535 27 221 6.4 14.5 0.00 0.00 0.00 74 1006.6
20260505200035 27 138 6.4 14.5 0.00 0.00 0.00 75 1006.7
20260505195535 27 97 4.8 14.5 0.00 0.00 0.00 75 1006.8
20260505195035 27 69 4.8 17.7 0.00 0.00 0.00 76 1006.9
20260505194536 27 172 6.4 17.7 0.00 0.00 0.00 76 1007.0
20260505194032 27 129 4.8 14.5 0.00 0.00 0.00 74 1007.0
20260505193530 27 125 3.2 12.9 0.00 0.00 0.00 77 1006.9
20260505193030 27 212 4.8 12.9 0.00 0.00 0.00 77 1007.1
20260505192526 27 138 4.8 9.7 0.00 0.00 0.00 77 1007.2
20260505192026 27 106 4.8 12.9 0.00 0.00 0.00 78 1007.4
20260505191525 26 42 4.8 12.9 0.00 0.00 0.00 78 1007.4
20260505191026 26 156 6.4 14.5 0.00 0.00 0.00 79 1007.5
20260505190526 26 80 4.8 14.5 0.00 0.00 0.00 79 1007.6
20260505190026 26 177 4.8 12.9 0.00 0.00 0.00 78 1007.7
20260505185526 26 80 3.2 11.3 0.00 0.00 0.00 78 1007.6
20260505185027 26 89 4.8 12.9 0.00 0.00 0.00 80 1007.6
20260505184527 26 84 4.8 12.9 0.00 0.00 0.00 78 1007.7
20260505184026 26 115 3.2 11.3 0.00 0.00 0.00 80 1007.6
20260505183527 26 153 3.2 11.3 0.00 0.00 0.00 80 1007.7
20260505183027 26 200 3.2 9.7 0.00 0.00 0.00 81 1007.9
20260505181527 26 0 3.2 11.3 0.00 0.00 0.00 81 1008.0
20260505181028 26 70 4.8 14.5 0.00 0.00 0.00 80 1008.0
20260505180021 25 104 3.2 8.0 0.00 0.00 0.00 81 1008.2
20260505175519 25 227 3.2 9.7 0.00 0.00 0.00 81 1008.2
20260505175018 25 227 3.2 9.7 0.00 0.00 0.00 82 1008.2
20260505173519 25 223 4.8 11.3 0.00 0.00 0.00 83 1008.3
20260505173018 25 263 4.8 11.3 0.00 0.00 0.00 83 1008.4
20260505172518 25 40 3.2 8.0 0.00 0.00 0.00 84 1008.4
20260505170019 25 319 3.2 12.9 0.00 0.00 0.00 83 1008.7
20260505165518 25 278 3.2 9.7 0.00 0.00 0.00 84 1008.5
20260505165019 25 292 3.2 8.0 0.00 0.00 0.00 84 1008.5
20260505164519 24 169 3.2 11.3 0.00 0.00 0.00 85 1008.5
20260505163504 23 113 3.2 6.4 0.00 0.00 0.00 88 1008.8
20260505163004 23 246 3.2 6.4 0.00 0.00 0.00 87 1009.0
20260505162504 23 268 3.2 8.0 0.00 0.00 0.00 87 1009.0
20260505162001 23 0 3.2 9.7 0.00 0.00 0.00 88 1009.0
20260505161456 23 300 3.2 9.7 0.00 0.00 0.00 88 1009.1
20260505160449 23 314 3.2 6.4 0.00 0.00 0.00 88 1009.0
20260505152950 23 187 3.2 8.0 0.00 0.00 0.00 90 1009.1
20260505152450 23 297 1.6 3.2 0.00 0.00 0.00 90 1009.1
20260505151949 23 137 3.2 9.7 0.00 0.00 0.00 90 1009.1
20260505151451 22 328 3.2 9.7 0.00 0.00 0.00 90 1009.1
20260505150949 22 257 3.2 6.4 0.00 0.00 0.00 90 1009.0
20260505150450 22 338 3.2 8.0 0.00 0.00 0.00 90 1009.0
20260505140436 22 241 3.2 4.8 0.00 0.00 0.00 91 1008.9